Location: Unspecified
(41.1850°N, 73.2650°W)
Time: 04:12:42
(UTC+00:00)

Cosmos 2112 Rocket - Pass Details

Date: 14 December 2025
Orbit: 752 x 783 km, 74.0° (Epoch: 13 January)

Event Time Altitude Azimuth Distance (km) Brightness Sun altitude
Rises 23:18:43 0° 345° (NNW) 3,224 7.3 -20.6°
Reaches altitude 10° 23:21:10 10° 351° (N) 2,299 6.4 -21.1°
Enters shadow 23:26:07 50° 62° (ENE) 965 4.1 -22.0°
